﻿#観測日時,平均風速,平均風向,最大風速,最大風速発生風向,最大瞬間風速,最大瞬間風速発生風向
#(年月日),(m/s)   ,(16方位),(m/s)   ,(16方位)        ,(m/s)       ,(16方位)            
2019/1/16 0:01,2.4,10,2.4,10,2.6,10
2019/1/16 0:02,2.2,10,2.3,10,2.4,9
2019/1/16 0:03,2,10,2.2,10,2.2,13
2019/1/16 0:04,1.8,10,1.9,10,2,11
2019/1/16 0:05,1.6,11,1.8,10,2.5,10
2019/1/16 0:06,1.6,10,1.6,10,4.3,10
2019/1/16 0:07,1.6,11,1.7,10,4.1,10
2019/1/16 0:08,1.5,11,1.6,10,2.7,10
2019/1/16 0:09,1.5,11,1.5,10,3,11
2019/1/16 0:10,1.4,10,1.5,10,2.4,10
2019/1/16 0:11,1.3,11,1.4,10,1.6,10
2019/1/16 0:12,1.4,11,1.4,10,1.1,13
2019/1/16 0:13,1.3,11,1.4,10,1.9,12
2019/1/16 0:14,1.3,11,1.3,10,1.8,10
2019/1/16 0:15,1.2,11,1.3,10,1,9
2019/1/16 0:16,1,11,1.2,10,0.8,16
2019/1/16 0:17,0.9,11,1,11,0.8,9
2019/1/16 0:18,0.8,11,0.8,11,1,1
2019/1/16 0:19,0.8,12,0.8,11,1.8,16
2019/1/16 0:20,0.8,14,0.8,10,1.4,2
2019/1/16 0:21,0.7,15,0.7,11,0.4,4
2019/1/16 0:22,0.7,15,0.7,11,1.4,13
2019/1/16 0:23,0.6,15,0.7,11,1,12
2019/1/16 0:24,0.6,15,0.6,11,0.6,13
2019/1/16 0:25,0.5,15,0.5,11,0.8,13
2019/1/16 0:26,0.5,15,0.5,11,0.6,12
2019/1/16 0:27,0.5,14,0.5,11,0.5,12
2019/1/16 0:28,0.5,15,0.5,11,0.4,1
2019/1/16 0:29,0.4,15,0.5,12,0.4,15
2019/1/16 0:30,0.3,14,0.4,14,0.5,14
2019/1/16 0:31,0.4,14,0.4,15,1.3,15
2019/1/16 0:32,0.4,14,0.4,15,1.3,15
2019/1/16 0:33,0.4,15,0.4,15,1.3,2
2019/1/16 0:34,0.5,15,0.5,15,1.6,1
2019/1/16 0:35,0.5,16,0.5,15,1.3,1
2019/1/16 0:36,0.5,16,0.5,15,1.1,16
2019/1/16 0:37,0.6,16,0.6,16,1.9,16
2019/1/16 0:38,0.7,16,0.7,16,1.4,1
2019/1/16 0:39,0.8,16,0.8,16,1.4,16
2019/1/16 0:40,0.8,1,0.8,16,1.8,16
2019/1/16 0:41,0.9,1,0.9,1,3.6,1
2019/1/16 0:42,1,1,1,1,2.9,1
2019/1/16 0:43,1.1,1,1.1,1,2.7,16
2019/1/16 0:44,1.1,16,1.1,1,2.2,16
2019/1/16 0:45,1.3,16,1.3,16,2.4,15
2019/1/16 0:46,1.4,16,1.4,16,1.9,16
2019/1/16 0:47,1.3,16,1.4,16,1.6,15
2019/1/16 0:48,1.4,16,1.4,16,3.1,9
2019/1/16 0:49,1.5,15,1.5,15,3.9,9
2019/1/16 0:50,1.7,15,1.7,15,4.5,9
2019/1/16 0:51,1.8,14,1.8,14,5,9
2019/1/16 0:52,1.8,13,1.9,13,2.7,11
2019/1/16 0:53,1.8,12,1.9,13,2.7,10
2019/1/16 0:54,1.8,11,1.8,13,2,10
2019/1/16 0:55,1.7,10,1.8,13,1.8,8
2019/1/16 0:56,1.6,10,1.7,13,1,10
2019/1/16 0:57,1.6,10,1.6,13,1.4,10
2019/1/16 0:58,1.5,10,1.6,13,1,9
2019/1/16 0:59,1.3,10,1.5,13,0.5,10
2019/1/16 1:00,1,10,1.3,13,0.4,1
2019/1/16 1:01,0.8,10,1,13,1.4,16
2019/1/16 1:02,0.7,10,0.8,12,1.4,16
2019/1/16 1:03,0.7,11,0.7,12,1.8,16
2019/1/16 1:04,0.7,14,0.7,11,1.5,2
2019/1/16 1:05,0.7,16,0.7,10,1,2
2019/1/16 1:06,0.7,1,0.7,10,1.5,2
2019/1/16 1:07,0.8,1,0.8,10,3.2,1
2019/1/16 1:08,1,1,1,10,2.6,1
2019/1/16 1:09,1,1,1,10,1.8,1
2019/1/16 1:10,1.1,1,1.1,1,1.8,1
2019/1/16 1:11,1.2,1,1.2,1,1.9,1
2019/1/16 1:12,1.2,2,1.2,1,1.1,4
2019/1/16 1:13,1.1,2,1.2,1,1.5,1
2019/1/16 1:14,1.2,1,1.2,1,2.7,16
2019/1/16 1:15,1.3,2,1.3,1,2.2,1
2019/1/16 1:16,1.3,2,1.3,1,1.5,4
2019/1/16 1:17,1.2,2,1.3,1,0.9,4
2019/1/16 1:18,1.1,3,1.2,1,1.3,4
2019/1/16 1:19,1.1,3,1.1,1,1.4,3
2019/1/16 1:20,1.2,2,1.2,1,3.1,16
2019/1/16 1:21,1.2,3,1.2,1,1.5,16
2019/1/16 1:22,1.2,2,1.2,1,1.3,15
2019/1/16 1:23,1.2,2,1.2,1,1.3,16
2019/1/16 1:24,1,2,1.2,1,0.5,15
2019/1/16 1:25,0.9,2,1,2,0.5,13
2019/1/16 1:26,0.8,1,0.9,2,0.6,1
2019/1/16 1:27,0.8,1,0.8,2,1.3,1
2019/1/16 1:28,0.8,1,0.8,2,1.4,1
2019/1/16 1:29,0.8,1,0.8,2,1.3,3
2019/1/16 1:30,0.7,1,0.8,2,1.3,3
2019/1/16 1:31,0.6,1,0.7,3,0.8,2
2019/1/16 1:32,0.5,1,0.6,2,0.5,15
2019/1/16 1:33,0.5,16,0.5,2,0.5,15
2019/1/16 1:34,0.5,16,0.5,2,0.4,14
2019/1/16 1:35,0.4,16,0.5,2,0.3,12
2019/1/16 1:36,0.4,16,0.4,1,0,12
2019/1/16 1:37,0.3,16,0.4,1,0.3,6
2019/1/16 1:38,0.3,16,0.3,16,0.4,8
2019/1/16 1:39,0.3,14,0.3,1,2.6,9
2019/1/16 1:40,0.4,12,0.4,1,2,8
2019/1/16 1:41,0.4,10,0.4,1,0.6,8
2019/1/16 1:42,0.4,10,0.4,16,0.3,12
2019/1/16 1:43,0.4,10,0.4,16,0.3,13
2019/1/16 1:44,0.4,10,0.4,16,0.5,11
2019/1/16 1:45,0.4,10,0.4,16,1,11
2019/1/16 1:46,0.5,10,0.5,10,1.4,10
2019/1/16 1:47,0.6,10,0.6,10,1.3,10
2019/1/16 1:48,0.7,11,0.7,10,1.3,11
2019/1/16 1:49,0.7,12,0.7,10,1.6,13
2019/1/16 1:50,0.7,12,0.7,10,1.6,14
2019/1/16 1:51,0.8,13,0.8,13,1.4,13
2019/1/16 1:52,0.8,12,0.8,13,1.3,13
2019/1/16 1:53,0.9,12,0.9,12,1.3,10
2019/1/16 1:54,1,12,1,12,1.3,10
2019/1/16 1:55,1,12,1,12,1.3,10
2019/1/16 1:56,1,12,1,12,1.9,10
2019/1/16 1:57,1,12,1,12,2.1,9
2019/1/16 1:58,1,11,1,12,2,10
2019/1/16 1:59,1.1,11,1.1,11,2.7,10
2019/1/16 2:00,1.2,11,1.2,11,2.6,11
2019/1/16 2:01,1.2,10,1.2,11,3,10
2019/1/16 2:02,1.3,10,1.3,10,2.6,9
2019/1/16 2:03,1.3,10,1.3,10,2.5,11
2019/1/16 2:04,1.4,10,1.4,10,2.5,9
2019/1/16 2:05,1.5,10,1.5,10,1.8,10
2019/1/16 2:06,1.4,10,1.5,10,1.1,10
2019/1/16 2:07,1.3,10,1.4,10,0.6,9
2019/1/16 2:08,1.2,10,1.3,10,0.4,9
2019/1/16 2:09,1,10,1.2,10,0.1,12
2019/1/16 2:10,0.8,10,1,10,0.1,6
2019/1/16 2:11,0.6,9,0.8,10,0.3,6
2019/1/16 2:12,0.5,9,0.6,10,0.1,6
2019/1/16 2:13,0.4,8,0.5,10,0.8,4
2019/1/16 2:14,0.3,7,0.4,10,0.8,4
2019/1/16 2:15,0.2,6,0.3,10,0.9,5
2019/1/16 2:16,0.3,6,0.3,10,0.9,3
2019/1/16 2:17,0.3,5,0.3,10,1,3
2019/1/16 2:18,0.4,5,0.4,10,1.1,4
2019/1/16 2:19,0.5,4,0.5,10,1.1,4
2019/1/16 2:20,0.6,4,0.6,10,1.1,3
2019/1/16 2:21,0.6,4,0.6,9,0.4,3
2019/1/16 2:22,0.6,3,0.6,4,0.4,1
2019/1/16 2:23,0.6,3,0.6,4,0.9,4
2019/1/16 2:24,0.6,3,0.6,4,0.9,4
2019/1/16 2:25,0.6,3,0.6,4,0.5,7
2019/1/16 2:26,0.5,4,0.6,4,0.5,8
2019/1/16 2:27,0.4,3,0.5,4,0.1,1
2019/1/16 2:28,0.4,3,0.4,4,1.1,13
2019/1/16 2:29,0.3,2,0.4,4,0.9,14
2019/1/16 2:30,0.3,1,0.3,4,0.1,10
2019/1/16 2:31,0.3,15,0.3,4,0.5,11
2019/1/16 2:32,0.3,11,0.3,3,0.8,9
2019/1/16 2:33,0.3,11,0.3,3,0.5,11
2019/1/16 2:34,0.3,11,0.3,3,1.4,10
2019/1/16 2:35,0.3,11,0.3,3,0.9,8
2019/1/16 2:36,0.3,11,0.3,4,0.6,9
2019/1/16 2:37,0.4,11,0.4,3,1.3,9
2019/1/16 2:38,0.4,10,0.4,3,0.6,9
2019/1/16 2:39,0.3,10,0.4,11,0.4,13
2019/1/16 2:40,0.4,10,0.4,11,1.1,1
2019/1/16 2:41,0.5,10,0.5,10,1,1
2019/1/16 2:42,0.5,11,0.5,10,1.8,2
2019/1/16 2:43,0.6,12,0.6,11,1.6,2
2019/1/16 2:44,0.6,15,0.6,11,1.4,16
2019/1/16 2:45,0.7,15,0.7,15,1.3,16
2019/1/16 2:46,0.7,16,0.7,15,0.9,16
2019/1/16 2:47,0.7,1,0.7,15,0.5,2
2019/1/16 2:48,0.6,1,0.6,15,0.4,1
2019/1/16 2:49,0.6,1,0.6,15,0.1,3
2019/1/16 2:50,0.5,1,0.6,15,0,3
2019/1/16 2:51,0.5,2,0.5,15,0,6
2019/1/16 2:52,0.4,2,0.4,15,0.5,2
2019/1/16 2:53,0.3,2,0.4,15,0.3,3
2019/1/16 2:54,0.2,2,0.3,15,0.8,16
2019/1/16 2:55,0.2,2,0.2,15,1.1,16
2019/1/16 2:56,0.3,2,0.3,16,1.4,16
2019/1/16 2:57,0.3,2,0.3,1,1,15
2019/1/16 2:58,0.4,1,0.4,1,1,16
2019/1/16 2:59,0.4,1,0.4,1,0.5,16
2019/1/16 3:00,0.4,1,0.4,1,0,16
2019/1/16 3:01,0.4,1,0.4,2,0.1,4
2019/1/16 3:02,0.4,16,0.4,2,0.4,11
2019/1/16 3:03,0.4,16,0.4,2,0.4,12
2019/1/16 3:04,0.4,15,0.4,2,0.4,16
2019/1/16 3:05,0.3,15,0.4,2,0.9,16
2019/1/16 3:06,0.2,16,0.3,2,0.1,1
2019/1/16 3:07,0.2,16,0.2,2,0.3,13
2019/1/16 3:08,0.2,15,0.2,1,1.9,12
2019/1/16 3:09,0.2,15,0.2,1,1.1,13
2019/1/16 3:10,0.3,15,0.3,1,1.3,12
2019/1/16 3:11,0.4,14,0.4,1,2.4,12
2019/1/16 3:12,0.5,14,0.5,14,2.2,11
2019/1/16 3:13,0.6,14,0.6,14,1.4,12
2019/1/16 3:14,0.7,14,0.7,14,1.8,14
2019/1/16 3:15,0.8,13,0.8,13,1.4,12
2019/1/16 3:16,0.9,13,0.9,13,2.2,13
2019/1/16 3:17,1,13,1,13,2.2,12
2019/1/16 3:18,1.1,13,1.1,13,2,12
2019/1/16 3:19,1.3,12,1.3,12,2.2,13
2019/1/16 3:20,1.3,12,1.3,12,1.8,13
2019/1/16 3:21,1.3,12,1.3,12,2.4,12
2019/1/16 3:22,1.3,12,1.3,12,2,13
2019/1/16 3:23,1.2,12,1.3,12,1.1,13
2019/1/16 3:24,1.2,12,1.2,12,1.1,11
2019/1/16 3:25,1.1,12,1.2,12,0.6,9
2019/1/16 3:26,1,12,1.1,12,1.4,8
2019/1/16 3:27,1,12,1,12,2.9,16
2019/1/16 3:28,0.9,12,1,12,1,13
2019/1/16 3:29,0.8,12,0.9,12,1.3,10
2019/1/16 3:30,0.7,11,0.8,12,1.8,13
2019/1/16 3:31,0.6,12,0.7,12,2,15
2019/1/16 3:32,0.6,12,0.6,12,1,11
2019/1/16 3:33,0.7,12,0.7,12,2.1,15
2019/1/16 3:34,0.8,12,0.8,12,2.1,16
2019/1/16 3:35,0.9,13,0.9,12,1.6,1
2019/1/16 3:36,1,14,1,12,2,15
2019/1/16 3:37,1,14,1,12,2.1,16
2019/1/16 3:38,1,14,1,14,2,15
2019/1/16 3:39,1,15,1.1,14,0.8,13
2019/1/16 3:40,1.1,15,1.1,14,2.6,1
2019/1/16 3:41,1.2,15,1.2,15,2.2,1
2019/1/16 3:42,1.2,15,1.2,15,2,16
2019/1/16 3:43,1.2,15,1.2,15,3,16
2019/1/16 3:44,1.4,15,1.4,15,4.9,16
2019/1/16 3:45,1.5,15,1.5,15,3.8,16
2019/1/16 3:46,1.5,15,1.5,15,2.9,15
2019/1/16 3:47,1.6,15,1.6,15,3.5,16
2019/1/16 3:48,1.8,15,1.8,15,3.5,16
2019/1/16 3:49,1.9,15,1.9,15,2.5,16
2019/1/16 3:50,1.7,15,1.8,15,1.9,15
2019/1/16 3:51,1.6,15,1.7,15,1.1,11
2019/1/16 3:52,1.6,15,1.6,15,0.8,15
2019/1/16 3:53,1.6,15,1.6,15,1.9,12
2019/1/16 3:54,1.4,14,1.5,15,2.4,14
2019/1/16 3:55,1.4,14,1.4,15,3,11
2019/1/16 3:56,1.6,13,1.6,15,4.1,12
2019/1/16 3:57,1.5,13,1.6,15,3.3,12
2019/1/16 3:58,1.6,13,1.6,15,3.8,12
2019/1/16 3:59,1.8,13,1.8,15,5,12
2019/1/16 4:00,1.9,13,1.9,13,3.7,13
2019/1/16 4:01,2.1,13,2.1,13,3.5,12
2019/1/16 4:02,2.2,12,2.2,13,2.7,11
2019/1/16 4:03,2.2,12,2.3,13,2,12
2019/1/16 4:04,2.4,12,2.4,12,5.7,13
2019/1/16 4:05,2.5,13,2.5,13,4.3,13
2019/1/16 4:06,2.5,13,2.5,13,4.7,12
2019/1/16 4:07,2.5,13,2.5,13,4.2,12
2019/1/16 4:08,2.4,13,2.5,13,2.4,11
2019/1/16 4:09,2.2,12,2.4,13,2,9
2019/1/16 4:10,2,12,2.1,13,1.9,10
2019/1/16 4:11,1.9,12,2,13,3.7,9
2019/1/16 4:12,2,12,2,13,6,9
2019/1/16 4:13,2.3,12,2.3,13,5.8,13
2019/1/16 4:14,2.4,12,2.4,13,6.5,12
2019/1/16 4:15,2.5,12,2.5,13,6.1,12
2019/1/16 4:16,2.6,12,2.6,12,5.2,13
2019/1/16 4:17,2.6,12,2.6,12,3.7,12
2019/1/16 4:18,2.7,12,2.7,12,4.4,12
2019/1/16 4:19,2.8,12,2.8,12,4.3,9
2019/1/16 4:20,3,12,3,12,4.7,9
2019/1/16 4:21,3.1,12,3.1,12,3.6,11
2019/1/16 4:22,3,12,3.1,12,5.5,11
2019/1/16 4:23,2.9,12,3,12,4.4,11
2019/1/16 4:24,2.8,12,2.9,12,4.2,12
2019/1/16 4:25,2.4,11,2.7,12,1.5,12
2019/1/16 4:26,2.1,12,2.3,12,2.9,13
2019/1/16 4:27,2.1,11,2.1,12,3.9,13
2019/1/16 4:28,2.1,11,2.2,12,1.8,9
2019/1/16 4:29,1.9,11,2.1,12,1.6,13
2019/1/16 4:30,1.8,12,1.9,12,4.9,11
2019/1/16 4:31,1.8,12,1.9,12,3.9,11
2019/1/16 4:32,1.7,12,1.8,12,2.5,11
2019/1/16 4:33,1.5,12,1.7,12,2.5,12
2019/1/16 4:34,1.3,12,1.5,12,0.4,8
2019/1/16 4:35,1.3,12,1.3,11,1.1,15
2019/1/16 4:36,1.3,12,1.3,11,2.1,15
2019/1/16 4:37,1.1,13,1.2,11,2.2,1
2019/1/16 4:38,1.1,13,1.1,11,2.5,1
2019/1/16 4:39,1,14,1.1,11,1.8,12
2019/1/16 4:40,1.1,14,1.1,12,4.2,10
2019/1/16 4:41,1.1,14,1.1,12,3.7,9
2019/1/16 4:42,1.1,14,1.1,12,3,12
2019/1/16 4:43,1.1,13,1.1,12,2.9,11
2019/1/16 4:44,1.3,13,1.3,12,2.2,10
2019/1/16 4:45,1.3,13,1.3,12,1.5,13
2019/1/16 4:46,1.3,13,1.3,13,1.9,1
2019/1/16 4:47,1.3,13,1.3,13,1.8,2
2019/1/16 4:48,1.2,12,1.3,13,0.5,4
2019/1/16 4:49,1.2,12,1.3,13,1,14
2019/1/16 4:50,1.1,13,1.2,13,0.9,14
2019/1/16 4:51,0.9,14,1,13,0.4,16
2019/1/16 4:52,0.8,13,0.9,13,1.1,10
2019/1/16 4:53,0.7,13,0.8,13,1.3,10
2019/1/16 4:54,0.6,13,0.7,13,0.8,5
2019/1/16 4:55,0.6,12,0.6,13,2.7,9
2019/1/16 4:56,0.6,11,0.6,13,2.6,8
2019/1/16 4:57,0.5,11,0.6,13,0.8,13
2019/1/16 4:58,0.6,12,0.6,12,1.8,1
2019/1/16 4:59,0.6,13,0.6,12,1.4,1
2019/1/16 5:00,0.6,12,0.6,13,1.6,3
2019/1/16 5:01,0.7,10,0.7,14,1,7
2019/1/16 5:02,0.7,9,0.7,13,1.5,7
2019/1/16 5:03,0.6,9,0.7,13,0.5,14
2019/1/16 5:04,0.6,10,0.6,11,0.3,16
2019/1/16 5:05,0.5,15,0.6,11,1,14
2019/1/16 5:06,0.6,15,0.6,11,3.5,7
2019/1/16 5:07,0.7,16,0.7,11,2.4,6
2019/1/16 5:08,0.8,12,0.8,15,3.2,4
2019/1/16 5:09,0.9,11,0.9,11,4.4,4
2019/1/16 5:10,1,11,1,11,3.6,7
2019/1/16 5:11,1.2,10,1.2,10,5.2,6
2019/1/16 5:12,1.3,10,1.3,10,3.1,7
2019/1/16 5:13,1.5,9,1.5,9,3,1
2019/1/16 5:14,1.5,9,1.5,9,2.1,2
2019/1/16 5:15,1.7,9,1.7,9,2.4,10
2019/1/16 5:16,1.7,9,1.7,9,4.1,10
2019/1/16 5:17,1.8,9,1.8,9,4.2,9
2019/1/16 5:18,1.9,9,1.9,9,4.3,10
2019/1/16 5:19,1.9,9,1.9,9,4.1,9
2019/1/16 5:20,2,9,2,9,2.4,8
2019/1/16 5:21,1.8,10,1.9,9,2.1,11
2019/1/16 5:22,1.8,10,1.8,9,3.7,10
2019/1/16 5:23,1.9,10,1.9,9,2.9,10
2019/1/16 5:24,2,10,2,9,2.6,11
2019/1/16 5:25,2,10,2.1,10,3.6,9
2019/1/16 5:26,2,10,2,10,2.2,11
2019/1/16 5:27,2,10,2,10,1.8,14
2019/1/16 5:28,1.8,10,1.9,10,2,14
2019/1/16 5:29,1.8,11,1.8,10,2.5,12
2019/1/16 5:30,1.9,11,1.9,10,4.2,10
2019/1/16 5:31,2,11,2,10,3.9,9
2019/1/16 5:32,2,11,2,10,3.9,11
2019/1/16 5:33,2,11,2,10,3.2,10
2019/1/16 5:34,2,11,2,10,2.5,10
2019/1/16 5:35,2,11,2,10,2.5,11
2019/1/16 5:36,1.9,11,2,10,1.4,10
2019/1/16 5:37,1.8,11,1.9,11,0.6,15
2019/1/16 5:38,1.7,11,1.8,11,1.5,16
2019/1/16 5:39,1.6,11,1.7,11,1.1,16
2019/1/16 5:40,1.4,11,1.6,11,1.3,10
2019/1/16 5:41,1.2,11,1.4,11,1.3,10
2019/1/16 5:42,1,11,1.2,11,0.8,10
2019/1/16 5:43,0.8,12,1,11,1.3,15
2019/1/16 5:44,0.7,13,0.8,11,0.4,13
2019/1/16 5:45,0.5,14,0.6,11,0.3,1
2019/1/16 5:46,0.5,15,0.5,11,0.4,2
2019/1/16 5:47,0.5,14,0.5,11,2.7,13
2019/1/16 5:48,0.6,13,0.6,11,3,11
2019/1/16 5:49,0.8,13,0.8,11,3,12
2019/1/16 5:50,0.9,13,0.9,11,2.9,12
2019/1/16 5:51,1.1,14,1.1,11,4.1,12
2019/1/16 5:52,1.3,14,1.3,14,3.5,13
2019/1/16 5:53,1.3,13,1.3,14,1.4,14
2019/1/16 5:54,1.4,13,1.4,13,1.8,1
2019/1/16 5:55,1.5,13,1.5,13,2.2,15
2019/1/16 5:56,1.5,13,1.5,13,1.4,16
2019/1/16 5:57,1.5,13,1.6,13,1.5,16
2019/1/16 5:58,1.3,14,1.5,13,0.4,14
2019/1/16 5:59,1.2,14,1.3,13,1.3,13
2019/1/16 6:00,1.1,14,1.2,13,1.5,13
2019/1/16 6:01,1,14,1.1,13,3.6,13
2019/1/16 6:02,0.9,14,1,13,3.6,13
2019/1/16 6:03,0.9,15,0.9,13,1.6,16
2019/1/16 6:04,1.1,15,1.1,13,3.6,16
2019/1/16 6:05,1.1,15,1.1,13,3.8,16
2019/1/16 6:06,1.2,15,1.2,13,2.2,15
2019/1/16 6:07,1.3,14,1.3,13,1.5,13
2019/1/16 6:08,1.3,14,1.3,14,0.9,12
2019/1/16 6:09,1.4,14,1.4,14,4.9,15
2019/1/16 6:10,1.6,15,1.6,15,5.4,1
2019/1/16 6:11,1.7,15,1.7,15,5.7,16
2019/1/16 6:12,2,15,2,15,5.1,16
2019/1/16 6:13,2.2,15,2.2,15,5,15
2019/1/16 6:14,2.2,15,2.2,15,2.6,16
2019/1/16 6:15,2.2,15,2.2,15,3.3,16
2019/1/16 6:16,2.2,15,2.2,15,3.6,16
2019/1/16 6:17,2.3,15,2.3,15,3.8,14
2019/1/16 6:18,2.5,15,2.5,15,3.9,13
2019/1/16 6:19,2.6,15,2.6,15,3.6,12
2019/1/16 6:20,2.5,15,2.6,15,3,13
2019/1/16 6:21,2.3,15,2.5,15,2.4,15
2019/1/16 6:22,2.2,15,2.3,15,6.7,16
2019/1/16 6:23,2.3,15,2.3,15,5.7,16
2019/1/16 6:24,2.5,15,2.5,15,5.8,16
2019/1/16 6:25,2.7,15,2.7,15,7,15
2019/1/16 6:26,2.8,15,2.8,15,4.9,16
2019/1/16 6:27,3,15,3,15,7.5,14
2019/1/16 6:28,3.1,15,3.1,15,6.2,16
2019/1/16 6:29,3.3,16,3.3,16,6.9,15
2019/1/16 6:30,3.4,16,3.4,16,6.1,16
2019/1/16 6:31,3.5,16,3.5,16,3.2,16
2019/1/16 6:32,3.5,16,3.5,16,3,16
2019/1/16 6:33,3.2,16,3.4,16,1.8,1
2019/1/16 6:34,2.9,16,3.2,16,1.6,4
2019/1/16 6:35,2.6,16,2.9,16,2.1,3
2019/1/16 6:36,2.4,16,2.6,16,2.2,5
2019/1/16 6:37,2.1,1,2.4,16,1.8,4
2019/1/16 6:38,1.8,2,2.1,16,0.9,3
2019/1/16 6:39,1.4,2,1.8,16,0.5,2
2019/1/16 6:40,1,2,1.4,16,0.3,16
2019/1/16 6:41,0.8,3,1,16,0,1
2019/1/16 6:42,0.6,3,0.8,15,0.5,10
2019/1/16 6:43,0.6,4,0.6,16,1.8,9
2019/1/16 6:44,0.6,4,0.6,16,1.8,9
2019/1/16 6:45,0.6,5,0.6,16,1.1,12
2019/1/16 6:46,0.5,10,0.5,16,0.6,11
2019/1/16 6:47,0.5,11,0.5,1,1.4,10
2019/1/16 6:48,0.5,11,0.5,2,1,8
2019/1/16 6:49,0.6,10,0.6,2,1.8,3
2019/1/16 6:50,0.6,10,0.6,2,1.4,3
2019/1/16 6:51,0.7,10,0.7,3,1.1,16
2019/1/16 6:52,0.8,9,0.8,10,1.3,2
2019/1/16 6:53,0.7,3,0.8,10,1.3,2
2019/1/16 6:54,0.7,2,0.8,10,1.4,16
2019/1/16 6:55,0.8,2,0.8,10,2.5,14
2019/1/16 6:56,0.8,2,0.8,10,1.6,14
2019/1/16 6:57,0.8,2,0.8,10,1.4,8
2019/1/16 6:58,0.9,2,0.9,2,2,6
2019/1/16 6:59,1,2,1,2,6.4,10
2019/1/16 7:00,1.1,2,1.1,2,3.1,14
2019/1/16 7:01,1.1,2,1.1,2,2.2,2
2019/1/16 7:02,1.1,1,1.1,2,1.6,15
2019/1/16 7:03,1.2,1,1.2,1,2.9,14
2019/1/16 7:04,1.4,1,1.4,1,5.4,16
2019/1/16 7:05,1.6,1,1.6,1,4.2,16
2019/1/16 7:06,1.7,1,1.7,1,3.7,2
2019/1/16 7:07,1.7,1,1.7,1,2.5,16
2019/1/16 7:08,1.7,1,1.7,1,2.9,1
2019/1/16 7:09,1.8,1,1.8,1,3.1,2
2019/1/16 7:10,1.9,1,1.9,1,4.1,15
2019/1/16 7:11,1.9,16,1.9,1,2.5,14
2019/1/16 7:12,2,1,2,16,2.4,3
2019/1/16 7:13,2,1,2,16,2.6,16
2019/1/16 7:14,1.8,1,2,16,2.5,15
2019/1/16 7:15,1.8,1,1.8,16,5.4,2
2019/1/16 7:16,1.8,1,1.8,16,3.3,1
2019/1/16 7:17,1.7,1,1.8,16,1.3,1
2019/1/16 7:18,1.6,1,1.7,16,1.3,8
2019/1/16 7:19,1.5,1,1.6,16,2.2,9
2019/1/16 7:20,1.5,1,1.5,16,2.9,10
2019/1/16 7:21,1.5,1,1.5,16,2.7,10
2019/1/16 7:22,1.5,12,1.5,1,3.2,10
2019/1/16 7:23,1.6,11,1.6,1,4.2,9
2019/1/16 7:24,1.7,10,1.7,1,4.4,10
2019/1/16 7:25,1.7,10,1.7,1,3.2,11
2019/1/16 7:26,1.7,10,1.7,1,3.9,10
2019/1/16 7:27,1.8,10,1.9,10,3.2,9
2019/1/16 7:28,1.9,10,1.9,10,2.6,11
2019/1/16 7:29,2,10,2,10,2.6,10
2019/1/16 7:30,1.8,10,2,10,1.3,1
2019/1/16 7:31,1.7,11,1.8,10,2.5,2
2019/1/16 7:32,1.7,11,1.8,10,3.5,15
2019/1/16 7:33,1.7,12,1.7,10,3.3,14
2019/1/16 7:34,1.9,12,1.9,10,7.4,16
2019/1/16 7:35,2.1,14,2.1,13,7.6,16
2019/1/16 7:36,2.1,14,2.1,13,4.7,15
2019/1/16 7:37,2.2,15,2.2,14,4.3,15
2019/1/16 7:38,2.1,15,2.2,14,2.6,14
2019/1/16 7:39,2,16,2.1,14,2.5,15
2019/1/16 7:40,2.2,16,2.2,14,3.3,16
2019/1/16 7:41,2.4,16,2.4,16,3.9,16
2019/1/16 7:42,2.4,16,2.4,16,3.8,16
2019/1/16 7:43,2.4,16,2.4,16,3.8,15
2019/1/16 7:44,2.2,16,2.4,16,2.4,1
2019/1/16 7:45,1.9,16,2.1,16,3.1,1
2019/1/16 7:46,1.8,16,1.9,16,2.7,16
2019/1/16 7:47,1.8,16,1.9,16,3.6,1
2019/1/16 7:48,1.9,16,1.9,16,3,16
2019/1/16 7:49,2,16,2,16,3.1,15
2019/1/16 7:50,2,16,2,16,4.1,16
2019/1/16 7:51,1.9,16,2,16,1.9,15
2019/1/16 7:52,1.9,16,1.9,16,3.6,16
2019/1/16 7:53,1.9,16,1.9,16,2.5,16
2019/1/16 7:54,1.9,16,1.9,16,2.7,16
2019/1/16 7:55,1.9,16,1.9,16,3.5,15
2019/1/16 7:56,1.8,16,1.9,16,2.5,16
2019/1/16 7:57,1.9,16,1.9,16,3.8,16
2019/1/16 7:58,1.9,16,1.9,16,2.9,1
2019/1/16 7:59,1.9,16,1.9,16,3.3,16
2019/1/16 8:00,1.9,16,1.9,16,3.5,1
2019/1/16 8:01,2,16,2,16,5.1,15
2019/1/16 8:02,2.1,16,2.1,16,4.3,15
2019/1/16 8:03,2.2,16,2.2,16,3.7,16
2019/1/16 8:04,2.2,16,2.2,16,2.4,16
2019/1/16 8:05,2.1,16,2.2,16,2.7,16
2019/1/16 8:06,2.2,16,2.2,16,2.4,16
2019/1/16 8:07,2,16,2.2,16,1.5,16
2019/1/16 8:08,1.8,16,2,16,0.5,3
2019/1/16 8:09,1.7,16,1.8,16,1.1,10
2019/1/16 8:10,1.6,16,1.6,16,2.7,1
2019/1/16 8:11,1.4,16,1.6,16,2,16
2019/1/16 8:12,1.3,16,1.5,16,2.9,15
2019/1/16 8:13,1.3,15,1.3,16,3.7,16
2019/1/16 8:14,1.2,15,1.3,16,2.2,1
2019/1/16 8:15,1.2,15,1.2,16,3.1,5
2019/1/16 8:16,1.3,15,1.3,16,4.2,6
2019/1/16 8:17,1.5,14,1.5,16,5.1,7
2019/1/16 8:18,1.8,15,1.8,16,3.6,7
2019/1/16 8:19,1.9,3,1.9,16,3,6
2019/1/16 8:20,1.8,6,1.9,16,1.8,9
2019/1/16 8:21,1.8,5,1.8,16,2.4,15
2019/1/16 8:22,1.7,6,1.8,16,2.7,8
2019/1/16 8:23,1.8,6,1.8,16,2.7,6
2019/1/16 8:24,1.9,5,1.9,16,3,4
2019/1/16 8:25,1.9,5,1.9,16,2.6,4
2019/1/16 8:26,1.9,5,1.9,16,3.6,5
2019/1/16 8:27,1.8,5,1.9,16,4.3,5
2019/1/16 8:28,1.9,4,1.9,16,3.9,3
2019/1/16 8:29,1.9,4,1.9,3,3.5,5
2019/1/16 8:30,2.2,4,2.2,4,4.9,6
2019/1/16 8:31,2.3,5,2.3,4,4.2,7
2019/1/16 8:32,2.3,5,2.4,5,2.5,6
2019/1/16 8:33,2.4,5,2.4,5,4.4,5
2019/1/16 8:34,2.4,5,2.4,5,3.2,5
2019/1/16 8:35,2.2,5,2.3,5,1.3,14
2019/1/16 8:36,2.1,5,2.2,5,1,2
2019/1/16 8:37,2,5,2,5,3.7,15
2019/1/16 8:38,1.8,4,2,5,4.2,14
2019/1/16 8:39,1.9,4,1.9,5,7.4,15
2019/1/16 8:40,1.9,3,2,5,7.9,15
2019/1/16 8:41,1.9,2,1.9,5,3.9,15
2019/1/16 8:42,2.1,1,2.1,5,5.1,1
2019/1/16 8:43,2.1,1,2.1,5,4.3,16
2019/1/16 8:44,2.1,16,2.2,5,3.6,1
2019/1/16 8:45,2.2,1,2.2,5,3.3,3
2019/1/16 8:46,2.4,1,2.4,1,4.5,3
2019/1/16 8:47,2.4,1,2.4,1,2.6,6
2019/1/16 8:48,2.3,2,2.4,1,3.8,4
2019/1/16 8:49,2.2,2,2.3,1,1.9,7
2019/1/16 8:50,1.8,3,2.1,1,0.6,15
2019/1/16 8:51,1.6,3,1.8,1,1.1,7
2019/1/16 8:52,1.4,4,1.6,1,1.8,6
2019/1/16 8:53,1.2,5,1.4,1,1.9,5
2019/1/16 8:54,1.1,5,1.2,1,1.6,6
2019/1/16 8:55,1.1,6,1.1,1,1.8,9
2019/1/16 8:56,0.9,6,1.1,1,1,7
2019/1/16 8:57,0.8,6,0.9,2,2.1,16
2019/1/16 8:58,0.8,6,0.8,2,2.5,16
2019/1/16 8:59,0.7,6,0.8,2,1.5,1
2019/1/16 9:00,0.8,6,0.8,3,2.5,13
2019/1/16 9:01,1,12,1,3,4.3,14
2019/1/16 9:02,1,14,1,4,3.2,9
2019/1/16 9:03,1.1,15,1.1,5,2.5,3
2019/1/16 9:04,1.1,15,1.2,15,2.1,16
2019/1/16 9:05,1.2,15,1.2,15,2,16
2019/1/16 9:06,1.3,15,1.3,15,2.9,14
2019/1/16 9:07,1.4,15,1.4,15,2.2,16
2019/1/16 9:08,1.3,15,1.4,15,0.8,14
2019/1/16 9:09,1.4,15,1.4,15,2.5,2
2019/1/16 9:10,1.4,16,1.4,15,1.9,5
2019/1/16 9:11,1.3,1,1.4,15,2,2
2019/1/16 9:12,1.3,1,1.3,15,3.9,3
2019/1/16 9:13,1.4,1,1.4,15,3.3,4
2019/1/16 9:14,1.5,1,1.5,1,4.4,2
2019/1/16 9:15,1.4,2,1.5,1,1,4
2019/1/16 9:16,1.3,2,1.4,1,0.3,1
2019/1/16 9:17,1.3,2,1.3,1,3.5,1
2019/1/16 9:18,1.4,2,1.4,1,4.4,2
2019/1/16 9:19,1.4,2,1.4,1,4.4,3
2019/1/16 9:20,1.6,2,1.6,2,6.5,2
2019/1/16 9:21,1.6,3,1.6,2,3.5,8
2019/1/16 9:22,1.5,2,1.6,2,2.9,8
2019/1/16 9:23,1.5,2,1.5,2,3.1,11
2019/1/16 9:24,1.5,1,1.5,2,3.1,10
2019/1/16 9:25,1.7,12,1.7,12,3.1,11
2019/1/16 9:26,1.8,12,1.8,12,1.4,11
2019/1/16 9:27,1.7,10,1.7,12,1.8,4
2019/1/16 9:28,1.7,11,1.7,12,2.9,15
2019/1/16 9:29,1.6,11,1.7,12,3,16
2019/1/16 9:30,1.5,11,1.6,12,3.3,16
2019/1/16 9:31,1.3,11,1.4,12,0.5,7
2019/1/16 9:32,1.2,12,1.3,12,0.3,9
2019/1/16 9:33,1.1,12,1.2,12,1.9,8
2019/1/16 9:34,1,10,1.1,12,2.7,6
2019/1/16 9:35,0.8,16,1,12,1.4,16
2019/1/16 9:36,0.9,2,0.9,12,2.1,16
2019/1/16 9:37,0.9,2,0.9,10,1.8,5
2019/1/16 9:38,0.9,2,0.9,11,3.9,15
2019/1/16 9:39,0.9,2,0.9,11,3.5,15
2019/1/16 9:40,0.8,3,0.9,11,1.8,10
2019/1/16 9:41,0.9,3,0.9,12,1,2
2019/1/16 9:42,0.9,3,0.9,12,0.8,1
2019/1/16 9:43,1.1,1,1.1,11,4.7,14
2019/1/16 9:44,1.3,16,1.3,16,6,13
2019/1/16 9:45,1.6,15,1.6,15,5,11
2019/1/16 9:46,1.8,15,1.8,15,6.1,11
2019/1/16 9:47,1.8,14,1.9,14,3.8,14
2019/1/16 9:48,1.9,14,1.9,14,2.1,15
2019/1/16 9:49,1.8,14,1.8,14,2.5,16
2019/1/16 9:50,2.1,15,2.1,15,5.4,4
2019/1/16 9:51,2.4,15,2.4,15,5,5
2019/1/16 9:52,2.8,15,2.8,15,5,6
2019/1/16 9:53,2.9,3,2.9,16,5.4,7
2019/1/16 9:54,2.8,5,2.9,16,5.6,7
2019/1/16 9:55,2.7,4,2.7,16,4.2,4
2019/1/16 9:56,2.6,4,2.7,16,3.8,3
2019/1/16 9:57,2.7,4,2.7,16,3.9,2
2019/1/16 9:58,2.7,4,2.7,16,3.6,16
2019/1/16 9:59,2.8,4,2.8,16,3.1,16
2019/1/16 10:00,2.6,3,2.8,16,2.9,16
2019/1/16 10:01,2.4,3,2.6,16,3.8,16
2019/1/16 10:02,2.3,2,2.4,16,4.3,16
2019/1/16 10:03,2.3,1,2.3,4,5.7,16
2019/1/16 10:04,2.5,16,2.5,4,6.9,15
2019/1/16 10:05,2.7,16,2.7,4,8.4,16
2019/1/16 10:06,2.8,15,2.8,4,5.2,13
2019/1/16 10:07,3.2,15,3.2,15,7.5,14
2019/1/16 10:08,3.4,15,3.4,15,7.9,16
2019/1/16 10:09,3.9,15,3.9,15,8.4,16
2019/1/16 10:10,4.2,15,4.2,15,9.2,15
2019/1/16 10:11,4.6,15,4.6,15,9.2,1
2019/1/16 10:12,4.8,15,4.8,15,6.2,16
2019/1/16 10:13,4.9,15,5,15,8.6,15
2019/1/16 10:14,4.8,15,4.9,15,5.6,15
2019/1/16 10:15,4.6,16,4.8,15,6.5,15
2019/1/16 10:16,4.6,16,4.6,15,5.7,16
2019/1/16 10:17,4.3,16,4.5,15,6.1,2
2019/1/16 10:18,4.1,16,4.2,15,6.4,1
2019/1/16 10:19,3.8,16,4,15,7.5,16
2019/1/16 10:20,3.7,16,3.8,15,5.7,1
2019/1/16 10:21,3.5,1,3.7,15,7.8,16
2019/1/16 10:22,3.6,1,3.6,15,9.2,1
2019/1/16 10:23,3.7,1,3.7,15,8.4,16
2019/1/16 10:24,4,1,4,15,9.5,1
2019/1/16 10:25,4.3,1,4.3,16,9.1,16
2019/1/16 10:26,4.3,1,4.3,16,8.9,16
2019/1/16 10:27,4.7,16,4.7,16,9.2,16
2019/1/16 10:28,4.9,16,4.9,16,8.5,1
2019/1/16 10:29,5.3,16,5.3,16,10.1,16
2019/1/16 10:30,5.5,16,5.5,16,8.6,16
2019/1/16 10:31,5.3,16,5.5,16,6.8,1
2019/1/16 10:32,5.1,16,5.4,16,4.9,16
2019/1/16 10:33,4.9,16,5.1,16,6.8,16
2019/1/16 10:34,4.8,16,4.9,16,7.8,1
2019/1/16 10:35,4.7,16,4.8,16,8.3,16
2019/1/16 10:36,4.7,16,4.7,16,7.1,15
2019/1/16 10:37,4.8,16,4.8,16,10.1,16
2019/1/16 10:38,4.7,16,4.8,16,8.9,14
2019/1/16 10:39,4.5,16,4.7,16,7.1,1
2019/1/16 10:40,4.3,16,4.5,16,6.7,16
2019/1/16 10:41,4.5,16,4.5,16,8.2,16
2019/1/16 10:42,4.5,16,4.6,16,6.3,16
2019/1/16 10:43,4.4,16,4.5,16,6.8,15
2019/1/16 10:44,4.3,16,4.4,16,6,1
2019/1/16 10:45,4.1,16,4.3,16,5.7,15
2019/1/16 10:46,4.1,16,4.1,16,7.7,15
2019/1/16 10:47,3.7,16,4.1,16,6,15
2019/1/16 10:48,3.5,16,3.6,16,4.3,14
2019/1/16 10:49,3.5,16,3.5,16,7,16
2019/1/16 10:50,3.3,16,3.5,16,4.3,12
2019/1/16 10:51,3.2,16,3.3,16,5.8,15
2019/1/16 10:52,3.1,15,3.2,16,3.3,14
2019/1/16 10:53,3,15,3.1,16,3.1,14
2019/1/16 10:54,2.8,15,2.9,16,4.5,13
2019/1/16 10:55,2.7,14,2.8,16,3.7,10
2019/1/16 10:56,2.7,14,2.7,16,6,14
2019/1/16 10:57,2.6,14,2.7,16,5.8,13
2019/1/16 10:58,2.4,14,2.6,16,2.4,11
2019/1/16 10:59,2.3,13,2.4,16,7.1,12
2019/1/16 11:00,2.5,13,2.5,16,5.8,12
2019/1/16 11:01,2.4,13,2.5,15,3,12
2019/1/16 11:02,2.3,13,2.3,15,2.5,2
2019/1/16 11:03,2.5,13,2.5,15,7.4,16
2019/1/16 11:04,2.5,13,2.5,15,6,15
2019/1/16 11:05,2.5,14,2.6,14,5.1,15
2019/1/16 11:06,2.4,14,2.6,14,2.6,16
2019/1/16 11:07,2.4,15,2.4,14,4.7,2
2019/1/16 11:08,2.6,15,2.6,14,7.2,2
2019/1/16 11:09,2.5,16,2.6,14,4.4,1